Location: Chmeli�t?
(49.8978°N, 15.0526°E)
Time: 07:36:55
(UTC+00:00)

Cosmos 2074 Rocket - Pass Details

Date: 10 October 2020
Orbit: 967 x 987 km, 82.9° (Epoch: 30 October)

Event Time Altitude Azimuth Distance (km) Brightness Sun altitude
Rises 21:13:46 0° 349° (NNW) 3,688 7.7 -43.0°
Reaches altitude 10° 21:16:18 10° 347° (NNW) 2,734 6.9 -43.2°
Enters shadow 21:18:26 23° 344° (NNW) 1,956 6.0 -43.4°
